Flag for U.S.A. Weather past 2 weeks in Gainesville, Florida, U.S.A.

Now
76 °F

Clear.


Feels Like: 76 °F
Forecast: 72 / 86 °F
Wind: No wind

Location: Gainesville Regional Airport

Current Time: Jul 25, 2014 at 3:01:26 AM

Latest Report: Jul 25, 2014 at 1:53 AM


Visibility: 10 mi

Pressure: 30.01 "Hg

Humidity: 91%

Dew point: 73 °F

Location of GainesvilleLocation

Historic Weather in Gainesville — Graph

°F

Gainesville temperature yesterday

Maximum temperature yesterday: 92 °F (at 3:53 PM)
Minimum temperature yesterday: 71 °F (at 6:53 AM)
Average temperature yesterday: 82 °F

Past Weeks' High & Low Weather Summary

 TemperatureHumidityPressure
High92 °F (Jul 24, 3:53 PM)100% (Jul 10, 6:53 AM)30.18 "Hg (Jul 10, 6:53 AM)
Low70 °F (Jul 11, 5:53 AM)39% (Jul 18, 3:53 PM)29.87 "Hg (Jul 16, 4:53 PM)
Average78 °F84%30.04 "Hg
* Reported Jul 10 1:53 AM — Jul 25 1:53 AM, Gainesville, Weather by CustomWeather, © 2014

Note: Actual official high and low records may vary slightly from our data, if they occured in-between our weather recording intervals... More about our weather records

Advertising

Gainesville weather history for previous 24 hours

 ConditionsComfort  
Time TempWeatherWind HumidityBarometerVisibility
1:53 AM
Jul 25
76 °FClear.No wind91%30.01 "Hg10 mi
12:53 AM77 °FClear.5 mph90%30.01 "Hg10 mi
11:53 PM
Jul 24
78 °FClear.6 mph87%30.02 "Hg10 mi
10:53 PM80 °FClear.7 mph79%30.02 "Hg10 mi
9:53 PM81 °FClear.7 mph77%29.99 "Hg10 mi
8:53 PM83 °FSunny.14 mph70%29.99 "Hg10 mi
7:53 PM86 °FSunny.16 mph59%29.98 "Hg10 mi
6:53 PM89 °FSunny.17 mph55%29.96 "Hg10 mi
5:53 PM91 °FSunny.18 mph52%29.95 "Hg10 mi
4:53 PM92 °FSunny.17 mph47%29.95 "Hg10 mi
3:53 PM92 °FPassing clouds.14 mph49%29.96 "Hg10 mi
2:53 PM91 °FPassing clouds.14 mph50%30.00 "Hg10 mi
1:53 PM91 °FPassing clouds.12 mph52%30.01 "Hg10 mi
12:53 PM89 °FPassing clouds.12 mph57%30.03 "Hg10 mi
11:53 AM88 °FPassing clouds.10 mph61%30.04 "Hg10 mi
10:53 AM85 °FScattered clouds.8 mph68%30.05 "Hg10 mi
9:53 AM83 °FPassing clouds.10 mph77%30.05 "Hg10 mi
8:53 AM80 °FSunny.7 mph85%30.05 "Hg10 mi
7:53 AM75 °FSunny.No wind96%30.03 "Hg9 mi
6:53 AM71 °FClear.No wind96%30.02 "Hg9 mi
5:53 AM72 °FClear.No wind93%30.01 "Hg10 mi
4:53 AM72 °FClear.No wind97%30.00 "Hg10 mi
3:53 AM73 °FClear.No wind97%29.99 "Hg10 mi
Weather by CustomWeather, © 2014

See weather overviewHow to use our weather pages